Regional Weather Roundup
Issued by NWS Sioux Falls, SD

Home | Current Version | Previous Version | Graphics & Text | Print | Product List | Glossary On
Versions: 1 2 3 4 5 6 7 8 9 10 11 12 13 14 15 16 17 18 19 20 21 22 23 24 25 26 27 28 29 30 31 32 33 34 35 36 37 38 39 40 41 42 43 44 45 46 47 48 49 50
000
ASUS43 KFSD 290202
RWRFSD

WEATHER ROUNDUP FOR SE SOUTH DAKOTA/SW MINNESOTA/NW IOWA
NATIONAL WEATHER SERVICE SIOUX FALLS SD
800 PM CST WED JAN 28 2015

NOTE: "FAIR" INDICATES FEW OR NO CLOUDS BELOW 12,000 FEET WITH NO
SIGNIFICANT WEATHER AND OR OBSTRUCTIONS TO VISIBILITY.


SDZ038>040-050-052>070-290300-
SOUTHEAST SOUTH DAKOTA

CITY           SKY/WX    TMP DP  RH WIND       PRES   REMARKS
CHAMBERLAIN    NOT AVBL
HURON          CLOUDY    34  31  88 N25G32    29.96R WCI  21
MADISON        CLOUDY    36  36 100 N23G29    29.84R
MITCHELL       CLOUDY    38  34  85 N29G47    29.94R
SIOUX FALLS    CLOUDY    36  33  89 NW7       29.83R
WINNER         CLOUDY    41  32  70 NW31G43   30.05R
YANKTON        MOCLDY    45  37  76 NW20G26   29.86R
$$

MNZ071-072-080-081-089-090-097-098-290300-
SOUTHWEST MINNESOTA

CITY           SKY/WX    TMP DP  RH WIND       PRES   REMARKS
FAIRMONT       CLOUDY    34  28  80 N10       29.77R WCI  26
JACKSON        CLOUDY    32  32 100 NW8       29.78R FOG     WCI  25
LUVERNE        CLOUDY    36  34  93 NW7       29.81R FOG
MARSHALL       CLOUDY    34  28  80 CALM      29.83S
MONTEVIDEO     FOG       32  32 100 N7        29.85R VSB 3/4 WCI  26
PIPESTONE      CLOUDY    36  34  93 N12G20    29.80R
REDWOOD FALLS  FOG       33  32  96 NW6       29.81S VSB 1/2 WCI  28
TRACY          CLOUDY    33  32  96 N5        29.81R FOG     WCI  29
WINDOM         CLOUDY    34  34 100 CALM      29.78S FOG
WORTHINGTON    CLOUDY    32  30  93 NW6       29.79R VSB 3/4 WCI  26
$$

IAZ001>003-012>014-020>022-031-032-NEZ013-014-SDZ071-290300-
NORTHWEST IOWA

CITY           SKY/WX    TMP DP  RH WIND       PRES   REMARKS
ESTHERVILLE    CLOUDY    32  31  96 N8        29.77R FOG     WCI  25
SIOUX CITY     PTCLDY    43  37  79 NW18      29.77R
SPENCER        CLOUDY    35  32  88 N8        29.77R FOG     WCI  29
$$

ABBREVIATIONS USED IN REMARKS
   TC - TEMPERATURE IN CELSIUS
  WCI - WIND CHILL INDEX
   HX - HEAT INDEX
  VSB - VISIBILITY



USA.gov is the U.S. government's official web portal to all federal, state and local government web resources and services.